Home > Time Zones > World Clock > Weather > Iran > Tehran > Past weeks

Flag for Iran Weather past 2 weeks in Tehran, Iran

Now
84 °F

Sunny.


Feels Like: 82 °F
Forecast: 77 / 98 °F
Wind: 12 mph from Southwest

Location: Tehran-Mehrabad

Current Time: Jul 28, 2015 at 9:13:55 AM

Latest Report: Jul 28, 2015 at 8:30 AM


Visibility: 10 mi

Pressure: 29.86 "Hg (26.13 "Hg at 1179m altitude)

Humidity: 22%

Dew point: 41 °F

Location of TehranLocation

Historic Weather in Tehran — Graph

°F

Tehran temperature yesterday

Maximum temperature yesterday: 97 °F (at 5:30 PM)
Minimum temperature yesterday: 75 °F (at 5:30 AM)
Average temperature yesterday: 87 °F

Past Weeks' High & Low Weather Summary

 TemperatureHumidityPressure
High104 °F (Jul 16, 5:00 PM)83% (Jul 19, 8:00 PM)30.07 "Hg (Jul 19, 8:00 PM)
Low64 °F (Jul 20, 5:00 AM)6% (Jul 14, 4:30 PM)29.62 "Hg (Jul 19, 5:30 PM)
Average87 °F22%29.89 "Hg
* Reported Jul 13 7:30 AM — Jul 28 8:00 AM, Tehran, Weather by CustomWeather, © 2015

Note: Actual official high and low records may vary slightly from our data, if they occured in-between our weather recording intervals... More about our weather records

Advertising

Tehran weather history for previous 24 hours

 ConditionsComfort  
Time TempWeatherWind HumidityBarometerVisibility
8:00 AM
Tue, Jul 28
88 °FSunny.No wind19%29.83 "Hg10 mi
7:30 AM84 °FClear.5 mph22%29.83 "Hg10 mi
7:00 AM82 °FClear.5 mph23%29.83 "Hg10 mi
6:30 AM82 °FClear.5 mph23%29.83 "Hg10 mi
6:00 AM81 °FClear.5 mph28%29.80 "Hg10 mi
5:30 AM81 °FClear.5 mph26%29.80 "Hg10 mi
5:00 AM81 °FClear.5 mph28%29.80 "Hg10 mi
4:30 AM82 °FClear.5 mph26%29.80 "Hg10 mi
4:00 AM81 °FClear.5 mph28%29.80 "Hg10 mi
3:30 AM84 °FClear.No wind23%29.80 "Hg10 mi
2:30 AM84 °FClear.5 mph23%29.80 "Hg10 mi
2:00 AM84 °FClear.5 mph23%29.80 "Hg10 mi
1:30 AM84 °FClear.5 mph25%29.80 "Hg10 mi
1:00 AM84 °FClear.5 mph25%29.80 "Hg10 mi
12:30 AM86 °FClear.5 mph22%29.80 "Hg10 mi
12:00 AM88 °FClear.5 mph18%29.80 "Hg10 mi
11:30 PM
Mon, Jul 27
86 °FClear.No wind22%29.77 "Hg10 mi
11:00 PM88 °FClear.No wind19%29.77 "Hg10 mi
10:30 PM90 °FClear.5 mph17%29.77 "Hg10 mi
10:00 PM91 °FClear.7 mph15%29.77 "Hg10 mi
9:30 PM91 °FSunny.7 mph14%29.77 "Hg10 mi
9:00 PM93 °FPassing clouds.9 mph13%29.77 "HgN/A
8:30 PM93 °FPassing clouds.9 mph14%29.74 "HgN/A
8:00 PM95 °FPassing clouds.7 mph12%29.74 "HgN/A
7:30 PM95 °FPassing clouds.5 mph11%29.74 "HgN/A
7:00 PM97 °FPassing clouds.5 mph9%29.74 "HgN/A
6:30 PM97 °FPassing clouds.5 mph9%29.74 "HgN/A
6:00 PM97 °FPassing clouds.5 mph9%29.74 "HgN/A
5:30 PM97 °FPassing clouds.5 mph10%29.77 "HgN/A
5:00 PM95 °FPassing clouds.7 mph10%29.77 "HgN/A
4:30 PM95 °FPassing clouds.5 mph11%29.77 "HgN/A
4:00 PM95 °FPassing clouds.9 mph11%29.80 "HgN/A
3:30 PM93 °FPassing clouds.7 mph12%29.80 "HgN/A
3:00 PM93 °FPassing clouds.5 mph12%29.80 "HgN/A
2:30 PM93 °FPassing clouds.12 mph13%29.83 "HgN/A
2:00 PM93 °FPassing clouds.5 mph12%29.83 "HgN/A
1:30 PM91 °FPassing clouds.7 mph14%29.83 "HgN/A
1:00 PM90 °FSunny.9 mph15%29.86 "Hg10 mi
12:30 PM90 °FSunny.9 mph14%29.86 "Hg10 mi
12:00 PM90 °FSunny.9 mph15%29.86 "Hg10 mi
11:30 AM88 °FSunny.7 mph17%29.89 "Hg10 mi
11:00 AM88 °FSunny.9 mph16%29.89 "Hg10 mi
10:30 AM86 °FSunny.7 mph18%29.89 "Hg10 mi
10:00 AM86 °FSunny.7 mph18%29.89 "Hg10 mi
9:30 AM86 °FSunny.7 mph18%29.89 "Hg10 mi
Weather by CustomWeather, © 2015

See weather overviewHow to use our weather pages